Location: Unspecified
(0.0000°N, 0.0000°E)
Time: 02:56:33
(UTC+00:00)

Vanguard 1 Rocket - All Passes

Search period start: 21 April 2015 00:00
Search period end: 01 May 2015 00:00
Orbit: 655 x 4223 km, 34.3° (Epoch: 17 April)

Date Brightness Start Highest point End Pass type
(mag) Time Alt. Az. Time Alt. Az. Time Alt. Az.
21 Apr - 00:32:19 10° WSW 00:54:15 55° NNW 01:18:37 10° NE visible
21 Apr - 03:12:01 10° WNW 03:31:55 25° NNW 03:46:59 10° NNE visible
21 Apr - 06:01:28 10° NNW 06:09:47 14° N 06:16:11 10° NNE daylight
21 Apr - 08:34:22 10° NNW 08:42:38 22° NNE 08:48:11 10° ENE daylight
21 Apr - 11:02:36 10° WNW 11:09:52 78° SW 11:14:31 10° SE daylight
21 Apr - 18:33:45 10° SSE 18:36:23 11° SSE 18:40:45 10° SE visible
21 Apr - 20:53:04 10° SSW 21:06:22 49° SE 21:29:31 10° ENE visible
21 Apr - 23:19:02 10° WSW 23:38:23 73° NW 00:04:51 10° NE visible
22 Apr - 01:52:55 10° W 02:14:56 34° NNW 02:34:39 10° NNE visible
22 Apr - 04:40:36 10° NW 04:53:51 17° N 05:03:29 10° NNE visible
22 Apr - 07:20:42 10° NNW 07:29:25 18° N 07:35:42 10° NE daylight
22 Apr - 09:49:53 10° NW 09:58:58 51° NNE 10:04:14 10° ESE daylight
22 Apr - 12:20:25 10° W 12:23:58 17° SW 12:26:53 10° S daylight
22 Apr - 19:43:23 10° SSW 19:53:18 30° SE 20:10:30 10° E visible
22 Apr - 22:07:10 10° SW 22:23:29 85° SE 22:49:55 10° NE visible
23 Apr - 00:36:50 10° W 00:58:09 46° NNW 01:21:39 10° NE visible
23 Apr - 03:18:36 10° WNW 03:36:55 22° NNW 03:50:54 10° NNE visible
23 Apr - 06:04:57 10° NNW 06:14:59 16° N 06:22:27 10° NE daylight
23 Apr - 08:36:52 10° NW 08:47:07 32° NNE 08:53:14 10° E daylight
23 Apr - 11:06:29 10° WNW 11:13:31 46° SW 11:18:06 10° SE daylight
23 Apr - 18:35:17 10° S 18:40:35 15° SE 18:48:57 10° ESE visible
23 Apr - 20:56:22 10° SW 21:09:41 60° SE 21:33:34 10° ENE visible
23 Apr - 23:23:03 10° WSW 23:42:00 62° NNW 00:07:52 10° NE visible
24 Apr - 01:58:39 10° WNW 02:19:34 29° NNW 02:38:03 10° NNE visible
24 Apr - 04:46:08 10° NW 04:59:11 17° N 05:08:54 10° NNE visible
24 Apr - 07:23:06 10° NNW 07:34:11 24° NNE 07:41:22 10° ENE daylight
24 Apr - 09:53:06 10° NW 10:02:53 79° NE 10:08:18 10° ESE daylight
24 Apr - 19:46:28 10° SSW 19:56:50 38° SE 20:15:33 10° ENE visible
24 Apr - 22:10:51 10° WSW 22:26:52 82° NW 22:53:07 10° NE visible
25 Apr - 00:41:45 10° W 01:02:22 39° NNW 01:24:45 10° NE visible
25 Apr - 03:25:07 10° NW 03:42:11 20° N 03:55:22 10° NNE visible
25 Apr - 06:07:57 10° NNW 06:20:03 20° N 06:28:31 10° NE daylight
25 Apr - 08:39:36 10° NW 08:51:23 46° NNE 08:57:48 10° E daylight
25 Apr - 11:10:49 10° W 11:17:05 29° SW 11:21:20 10° SSE daylight
25 Apr - 18:37:44 10° S 18:44:29 20° SE 18:55:38 10° E visible
25 Apr - 20:59:49 10° SW 21:12:58 73° SE 21:37:13 10° ENE visible
25 Apr - 23:27:21 10° WSW 23:45:52 51° NNW 00:10:48 10° NE visible
26 Apr - 02:04:47 10° WNW 02:24:31 25° NNW 02:41:48 10° NNE visible
26 Apr - 04:50:40 10° NW 05:04:30 19° N 05:14:47 10° NE visible
26 Apr - 07:25:37 10° NW 07:38:47 32° NNE 07:46:29 10° E daylight
26 Apr - 09:56:38 10° WNW 10:06:36 69° SW 10:12:05 10° SE daylight
26 Apr - 19:49:41 10° SSW 20:00:11 48° SE 20:20:01 10° ENE visible
26 Apr - 22:14:45 10° WSW 22:30:27 69° NNW 22:56:07 10° NE visible
27 Apr - 00:47:05 10° W 01:06:55 33° NNW 01:27:59 10° NNE visible
27 Apr - 03:31:08 10° NW 03:47:35 20° N 04:00:29 10° NE visible
27 Apr - 06:10:42 10° NNW 06:24:56 25° NNE 06:34:11 10° ENE daylight
27 Apr - 08:42:35 10° NW 08:55:25 66° NNE 09:02:00 10° ESE daylight
27 Apr - 11:15:47 10° W 11:20:39 18° SW 11:24:09 10° S daylight
27 Apr - 18:40:32 10° SSW 18:48:09 27° SE 19:01:22 10° E visible
27 Apr - 21:03:24 10° SW 21:16:20 88° SE 21:40:33 10° NE visible
27 Apr - 23:31:59 10° W 23:50:02 43° NNW 00:13:45 10° NE visible
28 Apr - 02:11:06 10° WNW 02:29:44 23° N 02:46:02 10° NNE visible
28 Apr - 04:54:24 10° NW 05:09:43 22° N 05:20:42 10° NE visible
28 Apr - 07:28:15 10° NW 07:43:09 43° NNE 07:51:10 10° E daylight
28 Apr - 10:00:31 10° WNW 10:10:07 45° SW 10:15:35 10° SSE daylight
28 Apr - 17:34:01 10° SSE 17:36:15 11° SE 17:39:50 10° ESE daylight
28 Apr - 19:53:03 10° SW 20:03:30 60° SE 20:24:00 10° ENE visible
28 Apr - 22:18:53 10° WSW 22:34:17 56° NNW 22:59:00 10° NE visible
29 Apr - 00:52:48 10° WNW 01:11:46 28° NNW 01:31:29 10° NNE visible
29 Apr - 03:36:22 10° NW 03:53:01 20° N 04:06:08 10° NE visible
29 Apr - 06:13:22 10° NW 06:29:38 32° NNE 06:39:24 10° E daylight
29 Apr - 08:45:48 10° NW 08:59:12 89° SW 09:05:55 10° SE daylight
29 Apr - 11:22:10 10° WSW 11:24:18 11° SW 11:25:48 10° SSW daylight
29 Apr - 18:43:33 10° SSW 18:51:36 35° SE 19:06:23 10° ENE visible
29 Apr - 21:07:12 10° WSW 21:19:53 76° NW 21:43:37 10° NE visible
29 Apr - 23:37:00 10° W 23:54:29 35° NNW 00:16:47 10° NE visible
30 Apr - 02:17:15 10° NW 02:35:09 21° N 02:50:53 10° NE visible
30 Apr - 04:57:38 10° NW 05:14:44 26° NNE 05:26:25 10° ENE visible
30 Apr - 07:31:02 10° NW 07:47:17 58° NNE 07:55:31 10° ESE daylight
30 Apr - 10:04:51 10° WNW 10:13:34 31° SW 10:18:48 10° SSE daylight
30 Apr - 17:35:28 10° S 17:40:05 16° SE 17:47:15 10° ESE daylight
30 Apr - 19:56:32 10° SW 20:06:51 76° SE 20:27:34 10° ENE visible
30 Apr - 22:23:19 10° W 22:38:23 46° NNW 23:01:49 10° NE visible
